Location: Fiennes
(50.8274°N, 1.8253°E)
Time: 00:26:06
(UTC+00:00)

Okean 1 - Pass Details

Date: 15 May 2026
Orbit: 458 x 474 km, 82.5° (Epoch: 9 June)

Event Time Altitude Azimuth Distance (km) Brightness Sun altitude
Exits shadow 21:26:23 24° 153° (SSE) 1,018 4.1 -13.4°
Maximum altitude 21:28:08 44° 95° (E) 667 3.4 -13.6°
Drops below altitude 10° 21:31:36 10° 22° (NNE) 1,654 6.2 -13.9°
Sets 21:33:45 0° 16° (NNE) 2,540 7.4 -14.1°
